KAC787 OKKK-OEJN

Flight info

Callsign KAC787
Flight time 1h 55m
Altitude 36000
Route KFR DCT DEKOB P517 KMC B417 GAS G674 PMA B544 RBG/N0471F350 B544 NOMDA
Aircraft A21N/M-SDE2E3FGHIRWXY/LB1

Departure

Time 2026-05-06 09:29
Airport Kuwait International Airport (OKKK)

Arrival

Time 2026-05-06 11:24
Airport King Abdulaziz International Airport (OEJN)
Time Latitude Longitude Altitude Speed Heading
2026-05-06 09:10 29.23804 47.97306 170 ft 0 kts 245°
2026-05-06 09:16 29.23806 47.97310 170 ft 3 kts 244°
2026-05-06 09:17 29.23817 47.97337 170 ft 4 kts 240°
2026-05-06 09:17 29.23833 47.97362 170 ft 4 kts 221°
2026-05-06 09:17 29.23854 47.97376 170 ft 4 kts 182°
2026-05-06 09:17 29.23867 47.97375 170 ft 1 kts 155°
2026-05-06 09:20 29.23860 47.97379 170 ft 2 kts 156°
2026-05-06 09:20 29.23837 47.97390 170 ft 5 kts 155°
2026-05-06 09:20 29.23800 47.97409 170 ft 7 kts 155°
2026-05-06 09:21 29.23751 47.97435 170 ft 9 kts 155°
2026-05-06 09:21 29.23687 47.97456 170 ft 10 kts 179°
2026-05-06 09:21 29.23637 47.97404 170 ft 12 kts 246°
2026-05-06 09:21 29.23603 47.97313 170 ft 13 kts 247°
2026-05-06 09:22 29.23567 47.97216 170 ft 14 kts 247°
2026-05-06 09:22 29.23523 47.97115 170 ft 14 kts 243°
2026-05-06 09:22 29.23450 47.97055 169 ft 15 kts 164°
2026-05-06 09:22 29.23353 47.97100 169 ft 15 kts 155°
2026-05-06 09:23 29.23329 47.97113 169 ft 0 kts 154°
2026-05-06 09:23 29.23323 47.97116 170 ft 6 kts 154°
2026-05-06 09:23 29.23267 47.97124 170 ft 8 kts 208°
2026-05-06 09:23 29.23234 47.97047 169 ft 13 kts 246°
2026-05-06 09:24 29.23193 47.96951 169 ft 14 kts 245°
2026-05-06 09:24 29.23130 47.96892 169 ft 12 kts 168°
2026-05-06 09:24 29.23075 47.96919 170 ft 12 kts 155°
2026-05-06 09:24 29.23053 47.96931 171 ft 13 kts 155°
2026-05-06 09:25 29.22960 47.96979 171 ft 16 kts 158°
2026-05-06 09:25 29.22848 47.97035 170 ft 19 kts 152°
2026-05-06 09:25 29.22720 47.97107 170 ft 22 kts 156°
2026-05-06 09:25 29.22578 47.97184 170 ft 24 kts 156°
2026-05-06 09:26 29.22422 47.97260 170 ft 25 kts 152°
2026-05-06 09:26 29.22262 47.97355 170 ft 26 kts 155°
2026-05-06 09:26 29.22093 47.97443 170 ft 28 kts 156°
2026-05-06 09:26 29.21911 47.97539 169 ft 29 kts 155°
2026-05-06 09:27 29.21723 47.97640 170 ft 30 kts 155°
2026-05-06 09:27 29.21529 47.97743 171 ft 31 kts 155°
2026-05-06 09:27 29.21335 47.97844 173 ft 29 kts 155°
2026-05-06 09:27 29.21245 47.97809 173 ft 14 kts 249°
2026-05-06 09:28 29.21261 47.97709 173 ft 13 kts 310°
2026-05-06 09:28 29.21312 47.97629 173 ft 13 kts 305°
2026-05-06 09:28 29.21393 47.97567 172 ft 24 kts 335°
2026-05-06 09:28 29.21734 47.97386 170 ft 84 kts 335°
2026-05-06 09:29 29.22448 47.97005 167 ft 145 kts 335°
2026-05-06 09:29 29.23503 47.96439 375 ft 170 kts 334°
2026-05-06 09:29 29.24547 47.95861 950 ft 170 kts 334°
2026-05-06 09:29 29.25636 47.95291 1532 ft 172 kts 335°
2026-05-06 09:30 29.26792 47.94694 1889 ft 191 kts 335°
2026-05-06 09:30 29.28057 47.94030 2397 ft 208 kts 335°
2026-05-06 09:30 29.29395 47.93323 3087 ft 216 kts 334°
2026-05-06 09:30 29.30812 47.92568 3715 ft 232 kts 335°
2026-05-06 09:31 29.32301 47.91782 4591 ft 236 kts 335°
2026-05-06 09:31 29.33744 47.90944 5460 ft 239 kts 325°
2026-05-06 09:31 29.34818 47.89505 6250 ft 242 kts 290°
2026-05-06 09:31 29.34944 47.87613 6999 ft 245 kts 254°
2026-05-06 09:32 29.34165 47.85881 7800 ft 247 kts 235°
2026-05-06 09:32 29.33132 47.84297 8613 ft 249 kts 233°
2026-05-06 09:32 29.32075 47.82706 9399 ft 253 kts 234°
2026-05-06 09:32 29.30995 47.81094 10171 ft 256 kts 228°
2026-05-06 09:33 29.29571 47.79863 10887 ft 261 kts 201°
2026-05-06 09:33 29.27794 47.79614 11513 ft 270 kts 170°
2026-05-06 09:33 29.26008 47.80466 11907 ft 289 kts 147°
2026-05-06 09:33 29.24342 47.81813 12555 ft 297 kts 144°
2026-05-06 09:34 29.22668 47.83236 13328 ft 302 kts 144°
2026-05-06 09:34 29.20947 47.84628 14087 ft 305 kts 150°
2026-05-06 09:34 29.19024 47.85743 14679 ft 317 kts 156°
2026-05-06 09:34 29.16940 47.86749 14975 ft 336 kts 158°
2026-05-06 09:35 29.14732 47.87769 15244 ft 355 kts 159°
2026-05-06 09:35 29.12376 47.88854 15516 ft 374 kts 159°
2026-05-06 09:35 29.09888 47.89893 15779 ft 390 kts 165°
2026-05-06 09:35 29.07169 47.90359 16123 ft 401 kts 179°
2026-05-06 09:36 29.04361 47.90278 16655 ft 407 kts 184°
2026-05-06 09:36 29.01512 47.90044 17227 ft 411 kts 185°
2026-05-06 09:36 28.98661 47.89771 17809 ft 415 kts 185°
2026-05-06 09:36 28.95765 47.89483 18370 ft 418 kts 185°
2026-05-06 09:37 28.92851 47.89190 18912 ft 422 kts 185°
2026-05-06 09:37 28.89915 47.88894 19433 ft 425 kts 185°
2026-05-06 09:37 28.86992 47.88598 19934 ft 428 kts 185°
2026-05-06 09:37 28.84020 47.88298 20422 ft 432 kts 185°
2026-05-06 09:38 28.81018 47.87994 20898 ft 435 kts 185°
2026-05-06 09:38 28.77983 47.87688 21368 ft 438 kts 185°
2026-05-06 09:38 28.74940 47.87381 21810 ft 441 kts 185°
2026-05-06 09:38 28.71874 47.87073 22248 ft 444 kts 185°
2026-05-06 09:39 28.68796 47.86763 22689 ft 447 kts 185°
2026-05-06 09:39 28.65683 47.86450 23113 ft 450 kts 185°
2026-05-06 09:39 28.62552 47.86135 23535 ft 453 kts 185°
2026-05-06 09:39 28.59451 47.85813 23944 ft 455 kts 187°
2026-05-06 09:40 28.56324 47.85206 24356 ft 458 kts 195°
2026-05-06 09:40 28.53298 47.84027 24743 ft 460 kts 205°
2026-05-06 09:40 28.47995 47.79940 25478 ft 465 kts 222°
2026-05-06 09:41 28.45639 47.77421 25848 ft 467 kts 225°
2026-05-06 09:41 28.43351 47.74814 26338 ft 465 kts 226°
2026-05-06 09:41 28.41098 47.72185 26816 ft 464 kts 226°
2026-05-06 09:41 28.38850 47.69557 27256 ft 463 kts 226°
2026-05-06 09:42 28.36622 47.66973 27655 ft 462 kts 226°
2026-05-06 09:42 28.34376 47.64391 28031 ft 462 kts 226°
2026-05-06 09:42 28.32106 47.61802 28403 ft 461 kts 225°
2026-05-06 09:42 28.29838 47.59231 28770 ft 461 kts 225°
2026-05-06 09:43 28.27569 47.56666 29161 ft 460 kts 225°
2026-05-06 09:43 28.26999 47.56023 29259 ft 460 kts 225°
2026-05-06 09:43 28.24757 47.53473 29627 ft 459 kts 227°
2026-05-06 09:43 28.22719 47.50699 29987 ft 458 kts 235°
2026-05-06 09:44 28.21068 47.47664 30323 ft 457 kts 244°
2026-05-06 09:44 28.19855 47.44340 30646 ft 457 kts 253°
2026-05-06 09:44 28.19068 47.40866 30961 ft 456 kts 258°
2026-05-06 09:44 28.18427 47.37339 31273 ft 456 kts 259°
2026-05-06 09:45 28.17862 47.33836 31584 ft 455 kts 260°
2026-05-06 09:45 28.17319 47.30289 31872 ft 455 kts 261°
2026-05-06 09:45 28.16780 47.26757 32159 ft 454 kts 261°
2026-05-06 09:45 28.16232 47.23228 32432 ft 454 kts 260°
2026-05-06 09:46 28.15676 47.19716 32690 ft 453 kts 260°
2026-05-06 09:46 28.15118 47.16250 32952 ft 453 kts 260°
2026-05-06 09:46 28.14547 47.12746 33200 ft 452 kts 260°
2026-05-06 09:46 28.13973 47.09247 33439 ft 452 kts 260°
2026-05-06 09:47 28.13398 47.05750 33662 ft 451 kts 260°
2026-05-06 09:47 28.12821 47.02256 33895 ft 451 kts 260°
2026-05-06 09:47 28.12245 46.98765 34109 ft 451 kts 260°
2026-05-06 09:47 28.11669 46.95284 34321 ft 450 kts 260°
2026-05-06 09:48 28.11091 46.91789 34517 ft 450 kts 259°
2026-05-06 09:48 28.10516 46.88314 34710 ft 450 kts 259°
2026-05-06 09:48 28.09947 46.84882 34897 ft 449 kts 259°
2026-05-06 09:48 28.09370 46.81396 35070 ft 449 kts 259°
2026-05-06 09:49 28.08794 46.77926 35262 ft 449 kts 259°
2026-05-06 09:49 28.08219 46.74466 35426 ft 448 kts 259°
2026-05-06 09:49 28.07642 46.70996 35591 ft 448 kts 259°
2026-05-06 09:49 28.07064 46.67529 35750 ft 448 kts 259°
2026-05-06 09:50 28.06486 46.64066 35904 ft 448 kts 259°
2026-05-06 09:50 28.05914 46.60641 35996 ft 449 kts 259°
2026-05-06 09:50 28.04753 46.53698 36002 ft 448 kts 259°
2026-05-06 09:51 28.03592 46.46772 36000 ft 448 kts 259°
2026-05-06 09:51 28.02429 46.39856 36001 ft 448 kts 259°
2026-05-06 09:52 28.01260 46.32931 36002 ft 448 kts 259°
2026-05-06 09:52 28.00095 46.26049 36000 ft 448 kts 259°
2026-05-06 09:53 27.98923 46.19139 35997 ft 448 kts 259°
2026-05-06 09:53 27.97752 46.12198 36002 ft 448 kts 259°
2026-05-06 09:54 27.96590 46.05291 36001 ft 448 kts 259°
2026-05-06 09:54 27.95426 45.98398 36001 ft 448 kts 259°
2026-05-06 09:55 27.94253 45.91479 36003 ft 448 kts 259°
2026-05-06 09:55 27.93074 45.84554 35999 ft 448 kts 259°
2026-05-06 09:56 27.91894 45.77640 36002 ft 448 kts 259°
2026-05-06 09:56 27.90710 45.70725 35999 ft 448 kts 259°
2026-05-06 09:57 27.89530 45.63856 36002 ft 448 kts 259°
2026-05-06 09:57 27.87694 45.57147 36002 ft 448 kts 244°
2026-05-06 09:58 27.84102 45.51439 36006 ft 448 kts 226°
2026-05-06 09:58 27.79613 45.46541 35996 ft 449 kts 223°
2026-05-06 09:59 27.74972 45.41813 35998 ft 449 kts 222°
2026-05-06 09:59 27.70355 45.37143 36000 ft 449 kts 222°
2026-05-06 10:00 27.65725 45.32401 36000 ft 449 kts 223°
2026-05-06 10:00 27.61118 45.27642 36002 ft 449 kts 223°
2026-05-06 10:01 27.56505 45.22864 36002 ft 449 kts 223°
2026-05-06 10:01 27.52097 45.17928 36002 ft 449 kts 226°
2026-05-06 10:02 27.47781 45.12847 36000 ft 450 kts 226°
2026-05-06 10:02 27.43453 45.07760 35997 ft 450 kts 226°
2026-05-06 10:03 27.39102 45.02693 36002 ft 450 kts 226°
2026-05-06 10:03 27.34772 44.97677 36002 ft 450 kts 226°
2026-05-06 10:04 27.30413 44.92639 36001 ft 450 kts 226°
2026-05-06 10:04 27.26053 44.87603 35997 ft 450 kts 226°
2026-05-06 10:05 27.21683 44.82561 36001 ft 450 kts 226°
2026-05-06 10:05 27.17317 44.77529 36000 ft 450 kts 226°
2026-05-06 10:06 27.12973 44.72529 36000 ft 450 kts 226°
2026-05-06 10:06 27.08599 44.67499 35998 ft 450 kts 226°
2026-05-06 10:07 27.04228 44.62480 36001 ft 450 kts 226°
2026-05-06 10:07 26.99849 44.57458 35996 ft 450 kts 226°
2026-05-06 10:08 26.95501 44.52479 36002 ft 450 kts 226°
2026-05-06 10:08 26.91121 44.47472 35999 ft 450 kts 226°
2026-05-06 10:09 26.86737 44.42467 36002 ft 450 kts 226°
2026-05-06 10:09 26.82352 44.37466 35995 ft 450 kts 226°
2026-05-06 10:10 26.77962 44.32465 36002 ft 450 kts 225°
2026-05-06 10:10 26.73567 44.27463 35998 ft 450 kts 225°
2026-05-06 10:11 26.69213 44.22514 35996 ft 450 kts 225°
2026-05-06 10:11 26.64813 44.17518 36000 ft 450 kts 225°
2026-05-06 10:12 26.60423 44.12540 35997 ft 450 kts 225°
2026-05-06 10:12 26.56050 44.07586 35996 ft 450 kts 225°
2026-05-06 10:13 26.51646 44.02603 36002 ft 450 kts 225°
2026-05-06 10:13 26.47245 43.97629 36000 ft 450 kts 225°
2026-05-06 10:14 26.42844 43.92661 35998 ft 450 kts 225°
2026-05-06 10:14 26.38431 43.87685 36002 ft 451 kts 225°
2026-05-06 10:15 26.34052 43.82753 36000 ft 451 kts 225°
2026-05-06 10:15 26.29963 43.77492 36002 ft 450 kts 237°
2026-05-06 10:16 26.27025 43.71342 36003 ft 450 kts 244°
2026-05-06 10:16 26.24405 43.65005 36001 ft 450 kts 246°
2026-05-06 10:17 26.21857 43.58684 36001 ft 450 kts 246°
2026-05-06 10:17 26.19270 43.52332 36001 ft 451 kts 245°
2026-05-06 10:18 26.16661 43.45987 36001 ft 451 kts 245°
2026-05-06 10:18 26.14041 43.39646 36000 ft 451 kts 245°
2026-05-06 10:19 26.11423 43.33318 36001 ft 451 kts 245°
2026-05-06 10:19 26.08814 43.27017 36001 ft 451 kts 245°
2026-05-06 10:20 26.06185 43.20679 36001 ft 451 kts 245°
2026-05-06 10:20 26.03556 43.14349 36000 ft 451 kts 245°
2026-05-06 10:21 26.00926 43.08028 36001 ft 451 kts 245°
2026-05-06 10:21 25.98304 43.01735 36001 ft 451 kts 245°
2026-05-06 10:22 25.95663 42.95407 36000 ft 452 kts 245°
2026-05-06 10:22 25.93018 42.89078 36001 ft 451 kts 245°
2026-05-06 10:23 25.90373 42.82758 35997 ft 451 kts 245°
2026-05-06 10:23 25.87740 42.76478 36001 ft 451 kts 245°
2026-05-06 10:24 25.85091 42.70168 36001 ft 451 kts 245°
2026-05-06 10:24 25.82436 42.63853 36000 ft 451 kts 245°
2026-05-06 10:25 25.79785 42.57556 36000 ft 451 kts 245°
2026-05-06 10:25 25.77141 42.51285 35997 ft 451 kts 245°
2026-05-06 10:26 25.74480 42.44985 36000 ft 451 kts 245°
2026-05-06 10:26 25.71813 42.38678 36002 ft 451 kts 245°
2026-05-06 10:27 25.69144 42.32375 35997 ft 451 kts 245°
2026-05-06 10:27 25.66492 42.26122 35998 ft 451 kts 245°
2026-05-06 10:28 25.63820 42.19834 35998 ft 452 kts 245°
2026-05-06 10:28 25.61140 42.13535 36000 ft 452 kts 245°
2026-05-06 10:29 25.58458 42.07241 36000 ft 452 kts 245°
2026-05-06 10:29 25.55774 42.00953 35998 ft 452 kts 245°
2026-05-06 10:30 25.53105 41.94707 36000 ft 452 kts 245°
2026-05-06 10:30 25.50411 41.88413 36001 ft 452 kts 245°
2026-05-06 10:31 25.47716 41.82125 35999 ft 452 kts 245°
2026-05-06 10:31 25.45020 41.75843 36000 ft 452 kts 245°
2026-05-06 10:32 25.42337 41.69601 36002 ft 452 kts 244°
2026-05-06 10:32 25.39633 41.63320 36001 ft 452 kts 244°
2026-05-06 10:33 25.36925 41.57038 36001 ft 453 kts 244°
2026-05-06 10:33 25.34212 41.50754 36001 ft 453 kts 244°
2026-05-06 10:34 25.31496 41.44471 36001 ft 453 kts 244°
2026-05-06 10:34 25.28801 41.38246 36002 ft 453 kts 244°
2026-05-06 10:35 25.26083 41.31976 36000 ft 453 kts 244°
2026-05-06 10:35 25.23357 41.25698 36002 ft 453 kts 244°
2026-05-06 10:36 25.20648 41.19466 35997 ft 453 kts 244°
2026-05-06 10:36 25.17920 41.13201 36001 ft 453 kts 244°
2026-05-06 10:37 25.15189 41.06937 36002 ft 453 kts 244°
2026-05-06 10:37 25.12451 41.00666 36002 ft 453 kts 244°
2026-05-06 10:38 25.09707 40.94390 36001 ft 453 kts 244°
2026-05-06 10:38 25.06988 40.88182 36002 ft 453 kts 244°
2026-05-06 10:39 25.04238 40.81913 36000 ft 453 kts 244°
2026-05-06 10:39 25.01490 40.75658 36000 ft 453 kts 244°
2026-05-06 10:40 24.98761 40.69454 36001 ft 453 kts 244°
2026-05-06 10:40 24.96013 40.63218 35999 ft 452 kts 244°
2026-05-06 10:41 24.93260 40.56975 36001 ft 452 kts 244°
2026-05-06 10:41 24.90513 40.50756 36000 ft 452 kts 244°
2026-05-06 10:42 24.87757 40.44526 36001 ft 452 kts 244°
2026-05-06 10:42 24.85023 40.38354 36002 ft 452 kts 244°
2026-05-06 10:43 24.82371 40.32373 36002 ft 453 kts 244°
2026-05-06 10:44 24.78221 40.23032 36000 ft 452 kts 244°
2026-05-06 10:44 24.75457 40.16821 36000 ft 452 kts 244°
2026-05-06 10:45 24.72687 40.10604 35997 ft 452 kts 244°
2026-05-06 10:45 24.69935 40.04437 36002 ft 453 kts 244°
2026-05-06 10:46 24.67160 39.98226 36001 ft 453 kts 244°
2026-05-06 10:46 24.64379 39.92012 36001 ft 452 kts 244°
2026-05-06 10:47 24.61619 39.85852 36002 ft 452 kts 244°
2026-05-06 10:47 24.58949 39.79901 36000 ft 452 kts 244°
2026-05-06 10:48 24.55671 39.74051 36001 ft 451 kts 229°
2026-05-06 10:48 24.50918 39.69635 36000 ft 450 kts 209°
2026-05-06 10:49 24.45173 39.67036 35996 ft 451 kts 199°
2026-05-06 10:49 24.39175 39.64946 35997 ft 452 kts 197°
2026-05-06 10:50 24.33162 39.62923 36001 ft 452 kts 197°
2026-05-06 10:50 24.27165 39.60864 36001 ft 452 kts 198°
2026-05-06 10:51 24.21168 39.58773 35999 ft 452 kts 198°
2026-05-06 10:51 24.15232 39.56696 36002 ft 452 kts 198°
2026-05-06 10:52 24.09234 39.54599 36004 ft 452 kts 198°
2026-05-06 10:52 24.03231 39.52505 36002 ft 453 kts 198°
2026-05-06 10:53 23.97265 39.50426 36003 ft 453 kts 198°
2026-05-06 10:53 23.91254 39.48334 36000 ft 454 kts 198°
2026-05-06 10:54 23.85230 39.46239 36002 ft 455 kts 198°
2026-05-06 10:54 23.79218 39.44151 36003 ft 455 kts 198°
2026-05-06 10:55 23.73187 39.42059 35996 ft 455 kts 198°
2026-05-06 10:55 23.67144 39.39970 35996 ft 456 kts 198°
2026-05-06 10:56 23.61087 39.37880 36002 ft 457 kts 198°
2026-05-06 10:56 23.55044 39.35791 36004 ft 453 kts 198°
2026-05-06 10:57 23.49099 39.33736 36002 ft 450 kts 198°
2026-05-06 10:57 23.43139 39.31678 36002 ft 450 kts 198°
2026-05-06 10:58 23.37171 39.29620 36001 ft 450 kts 198°
2026-05-06 10:58 23.31203 39.27565 35996 ft 449 kts 198°
2026-05-06 10:59 23.25284 39.25528 35997 ft 449 kts 198°
2026-05-06 10:59 23.19336 39.23482 36000 ft 449 kts 198°
2026-05-06 11:00 23.13370 39.21433 36002 ft 449 kts 198°
2026-05-06 11:00 23.07410 39.19387 36003 ft 449 kts 198°
2026-05-06 11:01 23.01454 39.17345 36002 ft 449 kts 198°
2026-05-06 11:01 22.95541 39.15320 36000 ft 448 kts 198°
2026-05-06 11:02 22.89587 39.13282 35654 ft 450 kts 198°
2026-05-06 11:02 22.86593 39.12258 35401 ft 451 kts 198°
2026-05-06 11:02 22.83606 39.11237 35153 ft 451 kts 198°
2026-05-06 11:02 22.80572 39.10345 34901 ft 452 kts 191°
2026-05-06 11:03 22.77449 39.09921 34650 ft 452 kts 182°
2026-05-06 11:03 22.74308 39.09874 34403 ft 453 kts 180°
2026-05-06 11:03 22.71149 39.09926 34150 ft 454 kts 179°
2026-05-06 11:03 22.67996 39.10019 33907 ft 454 kts 178°
2026-05-06 11:04 22.64866 39.10122 33651 ft 455 kts 178°
2026-05-06 11:04 22.61710 39.10227 33405 ft 455 kts 178°
2026-05-06 11:04 22.58540 39.10332 33165 ft 456 kts 178°
2026-05-06 11:04 22.55361 39.10437 32910 ft 456 kts 178°
2026-05-06 11:05 22.52189 39.10540 32653 ft 457 kts 179°
2026-05-06 11:05 22.49014 39.10590 32295 ft 456 kts 180°
2026-05-06 11:05 22.45838 39.10607 31886 ft 455 kts 180°
2026-05-06 11:05 22.42668 39.10620 31441 ft 458 kts 180°
2026-05-06 11:06 22.39471 39.10633 30923 ft 459 kts 180°
2026-05-06 11:06 22.37363 39.10643 30599 ft 460 kts 180°
2026-05-06 11:06 22.33394 39.10661 29976 ft 461 kts 180°
2026-05-06 11:06 22.30183 39.10677 29468 ft 462 kts 180°
2026-05-06 11:07 22.26955 39.10693 28981 ft 463 kts 180°
2026-05-06 11:07 22.23724 39.10710 28467 ft 464 kts 180°
2026-05-06 11:07 22.20501 39.10726 27967 ft 465 kts 180°
2026-05-06 11:07 22.17296 39.10742 27465 ft 466 kts 180°
2026-05-06 11:08 22.14005 39.10759 26963 ft 467 kts 180°
2026-05-06 11:08 22.10790 39.10679 26461 ft 468 kts 186°
2026-05-06 11:08 22.07607 39.09983 25962 ft 468 kts 197°
2026-05-06 11:08 22.04517 39.08855 25461 ft 469 kts 200°
2026-05-06 11:09 22.01448 39.07640 24958 ft 471 kts 200°
2026-05-06 11:09 21.98376 39.06414 24458 ft 472 kts 200°
2026-05-06 11:09 21.95287 39.05246 23945 ft 470 kts 195°
2026-05-06 11:09 21.92071 39.04787 23446 ft 468 kts 179°
2026-05-06 11:10 21.88907 39.05280 22950 ft 464 kts 163°
2026-05-06 11:10 21.85973 39.06693 22449 ft 461 kts 147°
2026-05-06 11:10 21.83488 39.08857 21956 ft 458 kts 136°
2026-05-06 11:10 21.81269 39.11284 21461 ft 456 kts 134°
2026-05-06 11:11 21.79090 39.13753 20961 ft 453 kts 134°
2026-05-06 11:11 21.76936 39.16203 20461 ft 449 kts 134°
2026-05-06 11:11 21.74795 39.18640 19960 ft 441 kts 134°
2026-05-06 11:11 21.73439 39.20184 19636 ft 422 kts 134°
2026-05-06 11:12 21.71477 39.22420 19160 ft 405 kts 134°
2026-05-06 11:12 21.69502 39.24672 18652 ft 422 kts 134°
2026-05-06 11:12 21.67459 39.26999 18141 ft 431 kts 134°
2026-05-06 11:12 21.65567 39.29154 17548 ft 427 kts 134°
2026-05-06 11:13 21.62907 39.32183 16004 ft 417 kts 134°
2026-05-06 11:13 21.61514 39.33607 15229 ft 416 kts 142°
2026-05-06 11:13 21.59024 39.35123 14074 ft 410 kts 160°
2026-05-06 11:13 21.56310 39.35959 12935 ft 403 kts 167°
2026-05-06 11:14 21.52692 39.36855 11406 ft 395 kts 167°
2026-05-06 11:14 21.50919 39.37286 10637 ft 391 kts 167°
2026-05-06 11:14 21.48302 39.37923 9496 ft 382 kts 167°
2026-05-06 11:14 21.45762 39.38541 8362 ft 368 kts 167°
2026-05-06 11:15 21.43305 39.39141 7224 ft 356 kts 167°
2026-05-06 11:15 21.40932 39.39720 6139 ft 345 kts 167°
2026-05-06 11:15 21.38657 39.40277 5606 ft 321 kts 168°
2026-05-06 11:15 21.36569 39.40765 5260 ft 295 kts 173°
2026-05-06 11:16 21.34611 39.40630 4870 ft 275 kts 199°
2026-05-06 11:16 21.33022 39.39633 4362 ft 264 kts 227°
2026-05-06 11:16 21.32114 39.37986 4169 ft 259 kts 255°
2026-05-06 11:16 21.32044 39.36071 4143 ft 260 kts 284°
2026-05-06 11:17 21.32831 39.34337 4141 ft 261 kts 307°
2026-05-06 11:17 21.34022 39.32854 4135 ft 264 kts 313°
2026-05-06 11:17 21.35286 39.31419 4139 ft 265 kts 314°
2026-05-06 11:17 21.36560 39.29990 4140 ft 264 kts 314°
2026-05-06 11:18 21.37852 39.28590 4137 ft 264 kts 320°
2026-05-06 11:18 21.39164 39.27779 4133 ft 263 kts 342°
2026-05-06 11:18 21.40429 39.27470 4147 ft 263 kts 351°
2026-05-06 11:18 21.42248 39.27241 4143 ft 264 kts 354°
2026-05-06 11:19 21.44024 39.26935 4136 ft 249 kts 345°
2026-05-06 11:19 21.45603 39.26381 4139 ft 232 kts 339°
2026-05-06 11:19 21.47109 39.25770 4112 ft 230 kts 339°
2026-05-06 11:19 21.48476 39.25219 3940 ft 229 kts 339°
2026-05-06 11:20 21.50433 39.24455 3561 ft 219 kts 340°
2026-05-06 11:20 21.51368 39.24088 3343 ft 214 kts 339°
2026-05-06 11:20 21.52749 39.23543 2967 ft 208 kts 339°
2026-05-06 11:20 21.54080 39.23018 2671 ft 201 kts 339°
2026-05-06 11:21 21.55362 39.22512 2412 ft 191 kts 339°
2026-05-06 11:21 21.56568 39.22036 2156 ft 178 kts 339°
2026-05-06 11:21 21.57677 39.21598 1889 ft 166 kts 340°
2026-05-06 11:21 21.58716 39.21175 1697 ft 154 kts 339°
2026-05-06 11:22 21.59697 39.20769 1447 ft 150 kts 339°
2026-05-06 11:22 21.60673 39.20368 1268 ft 150 kts 339°
2026-05-06 11:22 21.61653 39.19994 1089 ft 150 kts 341°
2026-05-06 11:22 21.62645 39.19631 940 ft 151 kts 341°
2026-05-06 11:23 21.63624 39.19252 687 ft 149 kts 339°
2026-05-06 11:23 21.64596 39.18856 490 ft 149 kts 339°
2026-05-06 11:23 21.65483 39.18503 326 ft 149 kts 340°
2026-05-06 11:23 21.66451 39.18121 113 ft 148 kts 339°
2026-05-06 11:24 21.67368 39.17760 38 ft 133 kts 340°
2026-05-06 11:24 21.68009 39.17514 36 ft 55 kts 338°
2026-05-06 11:24 21.68271 39.17376 33 ft 37 kts 321°
2026-05-06 11:24 21.68373 39.17263 33 ft 17 kts 310°
2026-05-06 11:25 21.68446 39.17167 34 ft 15 kts 309°
2026-05-06 11:25 21.68486 39.17117 35 ft 0 kts 311°
2026-05-06 11:25 21.68495 39.17106 34 ft 2 kts 311°
2026-05-06 11:25 21.68501 39.17099 35 ft 1 kts 310°
2026-05-06 11:26 21.68507 39.17088 35 ft 6 kts 296°
2026-05-06 11:26 21.68504 39.17037 36 ft 8 kts 244°
2026-05-06 11:26 21.68465 39.17002 36 ft 7 kts 194°
2026-05-06 11:26 21.68413 39.17017 36 ft 10 kts 159°
2026-05-06 11:27 21.68341 39.17044 36 ft 12 kts 161°
2026-05-06 11:27 21.68254 39.17082 36 ft 15 kts 157°
2026-05-06 11:27 21.68179 39.17109 36 ft 10 kts 162°
2026-05-06 11:27 21.68107 39.17136 34 ft 12 kts 160°
2026-05-06 11:28 21.68016 39.17168 36 ft 15 kts 173°
2026-05-06 11:28 21.67977 39.17171 36 ft 1 kts 172°
2026-05-06 11:28 21.67967 39.17167 36 ft 2 kts 209°
2026-05-06 11:28 21.67958 39.17148 36 ft 5 kts 255°
2026-05-06 11:29 21.67925 39.17030 36 ft 24 kts 249°
2026-05-06 11:29 21.67871 39.16869 35 ft 23 kts 249°
2026-05-06 11:29 21.67814 39.16712 36 ft 23 kts 248°
2026-05-06 11:29 21.67760 39.16550 36 ft 23 kts 251°
2026-05-06 11:30 21.67706 39.16387 36 ft 23 kts 251°
2026-05-06 11:30 21.67654 39.16221 36 ft 23 kts 234°
2026-05-06 11:30 21.67531 39.16225 34 ft 19 kts 156°
2026-05-06 11:30 21.67407 39.16279 36 ft 20 kts 161°
2026-05-06 11:31 21.67278 39.16330 36 ft 20 kts 159°
2026-05-06 11:31 21.67146 39.16379 36 ft 20 kts 159°
2026-05-06 11:31 21.67014 39.16432 37 ft 21 kts 160°
2026-05-06 11:31 21.66892 39.16499 37 ft 18 kts 117°
2026-05-06 11:32 21.66910 39.16557 35 ft 6 kts 21°
2026-05-06 11:32 21.66977 39.16570 37 ft 10 kts
2026-05-06 11:32 21.66997 39.16574 37 ft 3 kts 12°
2026-05-06 11:32 21.67009 39.16577 37 ft 0 kts 14°